User: anonymous   Login
Location: Unspecified
(42.3650°N, 71.1030°W)
Time: 06:42:50
(UTC+00:00)
Language:

YUBILEINY - Orbit

View from above orbital plane
View from above orbital plane
View from above satellite
View from above satellite

Ground track
Ground track

The orbit data is extracted from the following two-line orbital elements,

1 32953U 08025A   24197.88378331  .00000021  00000-0  80584-4 0  9993
2 32953  82.5015  71.6369 0020399  43.8100 316.4594 12.43143584732690
Epoch (UTC): 15 July 2024 21:12:38
Eccentricity: 0.0020399
inclination: 82.5015°
perigee height: 1477 km
apogee height: 1509 km
right ascension of ascending node: 71.6369°
argument of perigee: 43.8100°
revolutions per day: 12.43143584
mean anomaly at epoch: 316.4594°
orbit number at epoch: 73269

The dashed part of the orbit path shows where the satellite is in the earth's shadow,  

DLR